[[{"header":{"parameterUnit":"m.s-1","parameterCategory":1,"la1":30.2991,"la2":30.254,"lo1":-89.0895,"lo2":-89.0444,"dy":0.0017,"dx":0.0017,"nx":28,"ny":28,"refTime":"2024-07-03T03:00:00:Z","depth":0,"parameterNumber":2,"parameterNumberName":"U-component_of_WINDS"},"data":[0,0,0,0,0,0,0,0,0,0,0,0,0,0,0,0,0,0,0,0,0,0,0,0,0,0,0,0,0,0,0,0,0,0,0,0,0,0,0,0,0,0,0,0,0,0,0,0,0,0,0,0,0,0,0,0,0,0,2.0893,2.0894,0,2.0944,2.0944,2.0945,2.091,2.0908,2.0907,2.0905,2.0956,2.0959,2.0962,0,0,0,0,0,0,0,0,0,0,0,0,0,2.0765,2.0768,2.0893,2.0894,2.0895,2.0943,2.0944,2.0945,2.091,2.0908,2.0906,2.0904,2.0955,2.0958,2.0962,0,0,0,0,0,0,0,0,0,0,0,0,0,2.0819,2.0769,2.0893,2.0883,2.0883,2.0943,2.0944,2.0945,2.091,2.0908,2.0906,2.0903,2.0954,2.0958,2.0962,2.1035,0,0,2.0975,2.0977,0,0,0,0,0,0,0,0,2.0816,2.0824,2.0884,2.0884,2.0884,2.0918,2.0918,2.0975,2.0911,2.09,2.0905,2.0902,2.0945,2.095,2.0965,2.1038,2.104,2.0976,2.0978,2.098,2.0981,0,0,0,0,0,0,0,2.0812,2.0821,2.0913,2.0885,2.0885,2.0875,2.088,2.0928,2.0935,2.0901,2.0898,2.0905,2.0945,2.0961,2.0966,2.1041,2.0975,2.0979,2.0982,2.0983,2.1173,2.1176,0,0,0,0,0,0,2.081,2.0818,2.0912,2.0915,2.0843,2.088,2.0885,2.0909,2.0935,2.0936,2.0907,2.0903,2.0955,2.0961,2.0967,2.1052,2.098,2.0984,2.0986,2.1171,2.1174,2.1176,0,0,0,0,0,0,2.0807,2.0818,2.091,2.0866,2.0877,2.0884,2.0912,2.0912,2.0927,2.0939,2.094,2.0922,2.0953,2.0961,2.1018,2.1053,2.0986,2.099,2.1168,2.1172,2.1175,2.1224,0,0,0,0,0,0,2.0803,2.0817,2.0846,2.0867,2.0879,2.096,2.0914,2.0914,2.0935,2.093,2.0953,2.0955,2.0952,2.1012,2.1022,2.1058,2.0993,2.1165,2.117,2.1174,2.1219,2.1229,2.1237,0,0,0,0,0,2.0799,2.0858,2.0848,2.0859,2.0915,2.0963,2.097,2.0965,2.0938,2.0966,2.0973,2.0954,2.1048,2.1018,2.1029,2.1067,2.1162,2.1168,2.1174,2.1215,2.1227,2.1237,0,0,0,0,0,0,2.0842,2.0861,2.0849,2.0917,2.0939,2.0957,2.0992,2.0978,2.1007,2.1002,2.0994,2.1,2.1059,2.1069,2.1035,2.1137,2.1101,2.1109,2.1129,2.114,2.1149,2.1144,2.0996,0,0,0,0,0,2.086,2.0897,2.0911,2.097,2.0981,2.0985,2.1005,2.0999,2.1021,2.103,2.1041,2.1063,2.1096,2.1119,2.1151,2.1221,2.1224,2.1252,2.1261,2.1269,2.1275,2.131,2.1322,2.1195,2.1195,2.1195,0,0,2.0896,2.0911,2.0935,2.0979,2.0995,2.1032,2.0993,2.1035,2.1062,2.1036,2.109,2.1099,2.1122,2.1185,2.1213,2.1195,2.1311,2.1276,2.1282,2.1284,2.1317,2.1329,2.134,2.1199,2.1198,2.1198,0,0,2.0981,2.0997,2.1046,2.1062,2.1086,2.1088,2.11,2.112,2.1124,2.1178,2.1158,2.1191,2.125,2.1267,2.1283,2.1372,2.1355,2.1383,2.1429,2.1463,2.1473,2.1482,2.1511,2.1522,2.139,2.139,2.139,0,2.1023,2.108,2.1074,2.1116,2.1135,2.1113,2.1161,2.1177,2.1211,2.1224,2.1203,2.1275,2.129,2.1355,2.1376,2.1391,2.1403,2.1379,2.1472,2.1481,2.1489,2.1517,2.1528,2.1393,2.1392,2.1392,2.1392,0,2.1129,2.1168,2.1205,2.1237,2.126,2.1306,2.1305,2.1329,2.1321,2.1324,2.1378,2.1394,2.1428,2.1443,2.1436,2.1506,2.1494,2.1473,2.1436,2.1504,2.153,2.1541,2.1397,2.1396,2.1395,2.1394,0,0,2.1244,2.1269,2.1283,2.1296,2.1319,2.1349,2.1393,2.1426,2.1445,2.1469,2.1504,2.1554,2.1534,2.1552,2.1547,2.1577,2.1643,2.1552,2.1552,2.1566,2.1718,2.1732,2.1745,2.1632,2.1634,2.1636,2.1715,0,2.1328,2.1404,2.1399,2.147,2.1505,2.1483,2.1521,2.1539,2.1543,2.1572,2.1577,2.1611,2.1584,2.1594,2.1623,2.1629,2.1673,2.1623,2.1663,2.1665,2.1656,2.1759,2.1774,2.1849,2.1726,2.1727,2.1729,0,2.1437,2.1463,2.1537,2.1553,2.1567,2.1602,2.1629,2.1659,2.1678,2.1678,2.1698,2.1687,2.1729,2.1692,2.175,2.1716,2.1732,2.1737,2.174,2.1742,2.17,2.1762,2.1873,2.1883,2.1745,2.1744,2.1743,0,2.151,2.1563,2.1614,2.1626,2.1647,2.1671,2.168,2.1697,2.1716,2.1741,2.1752,2.1782,2.1798,2.182,2.1816,2.179,2.1874,2.1837,2.1874,2.1874,2.1892,2.1891,2.2005,2.1906,2.1906,2.1905,2.1905,0,2.1604,2.165,2.1646,2.1678,2.1728,2.172,2.177,2.1777,2.1792,2.1823,2.1806,2.1836,2.183,2.1859,2.1857,2.1903,2.1911,2.1912,2.191,2.1912,2.1912,2.1921,2.1915,2.1908,2.1908,2.1907,2.1907,0,2.1693,2.1693,2.1747,2.1761,2.1766,2.1802,2.1813,2.1842,2.1844,2.1884,2.1892,2.1896,2.1929,2.1928,2.1966,2.1964,2.202,2.2014,2.2013,2.2011,2.2048,2.2043,2.2171,2.2186,2.2079,2.208,2.2081,0,2.1753,2.1787,2.1804,2.1824,2.1834,2.1866,2.1885,2.1879,2.1899,2.1922,2.1947,2.1979,2.2003,2.2057,2.2062,2.209,2.2083,2.2126,2.2087,2.2087,2.2081,2.2078,2.208,2.2133,2.2134,2.2135,2.2136,0,2.1857,2.1854,2.1882,2.1909,2.1931,2.1953,2.1972,2.1989,2.1984,2.2007,2.204,2.206,2.2097,2.2128,2.2154,2.2163,2.2148,2.2148,2.2157,2.2159,2.2156,2.2156,2.2032,2.2145,2.2144,2.2143,2.2143,2.2142,2.1931,2.196,2.1975,2.2006,2.202,2.2037,2.2064,2.2069,2.2096,2.2126,2.2121,2.2157,2.2173,2.2207,2.2218,2.2246,2.2231,2.2246,2.2249,2.2252,2.2255,2.2153,2.2251,2.2251,2.2251,2.2251,2.225,0,2.2032,2.2041,2.2069,2.2096,2.2119,2.2103,2.2123,2.2143,2.2175,2.2192,2.2216,2.2252,2.2281,2.2289,2.2316,2.2337,2.233,2.2344,2.2341,2.2343,2.2268,2.2256,2.2348,2.2348,2.2348,2.2348,2.2348,2.2348,2.2088,2.2134,2.2133,2.2185,2.2193,2.2228,2.2241,2.2257,2.2269,2.2311,2.2334,2.2339,2.235,2.2378,2.2404,2.2405,2.2415,2.2431,2.2429,2.2359,2.2349,2.2339,2.2328,2.2433,2.2434,2.2501,2.2502,2.2502]},{"header":{"parameterUnit":"m.s-1","parameterCategory":1,"la1":30.2991,"la2":30.254,"lo1":-89.0895,"lo2":-89.0444,"dy":0.0017,"dx":0.0017,"nx":28,"ny":28,"refTime":"2024-07-03T03:00:00:Z","depth":0,"parameterNumber":3,"parameterNumberName":"V-component_of_WINDS"},"data":[0,0,0,0,0,0,0,0,0,0,0,0,0,0,0,0,0,0,0,0,0,0,0,0,0,0,0,0,0,0,0,0,0,0,0,0,0,0,0,0,0,0,0,0,0,0,0,0,0,0,0,0,0,0,0,0,0,0,1.3792,1.3792,0,1.3826,1.3826,1.3827,1.3814,1.3813,1.3813,1.3812,1.3847,1.3849,1.385,0,0,0,0,0,0,0,0,0,0,0,0,0,1.3714,1.3716,1.3791,1.3792,1.3792,1.3826,1.3826,1.3827,1.3814,1.3813,1.3812,1.3811,1.3847,1.3849,1.3851,0,0,0,0,0,0,0,0,0,0,0,0,0,1.3748,1.3716,1.3791,1.379,1.379,1.3826,1.3826,1.3827,1.3814,1.3813,1.3812,1.3811,1.3846,1.3848,1.3851,1.389,0,0,1.3858,1.386,0,0,0,0,0,0,0,0,1.3746,1.3751,1.379,1.379,1.3791,1.3815,1.3812,1.3848,1.3815,1.3805,1.3812,1.381,1.3837,1.384,1.3849,1.3891,1.3893,1.3859,1.386,1.3861,1.3862,0,0,0,0,0,0,0,1.3744,1.375,1.3805,1.379,1.3791,1.3788,1.3791,1.3819,1.3827,1.3806,1.3805,1.3809,1.3837,1.3847,1.385,1.3893,1.3859,1.3861,1.3862,1.3863,1.3968,1.3969,0,0,0,0,0,0,1.3742,1.3748,1.3804,1.3806,1.3765,1.379,1.3794,1.3808,1.3827,1.3829,1.381,1.3809,1.3843,1.3847,1.3851,1.3897,1.3861,1.3864,1.3865,1.3967,1.3968,1.3969,0,0,0,0,0,0,1.374,1.3747,1.3803,1.3777,1.3784,1.3793,1.3808,1.3809,1.3819,1.383,1.3832,1.3819,1.3843,1.3848,1.388,1.3899,1.3865,1.3867,1.3965,1.3967,1.3969,1.399,0,0,0,0,0,0,1.3738,1.3746,1.3761,1.3777,1.3785,1.3831,1.381,1.3811,1.3823,1.3822,1.3839,1.384,1.3842,1.3876,1.3882,1.3901,1.3869,1.3963,1.3966,1.3968,1.3988,1.3993,1.3997,0,0,0,0,0,1.3735,1.3766,1.3762,1.3769,1.3804,1.3832,1.3837,1.3838,1.3825,1.384,1.3847,1.384,1.3895,1.388,1.3887,1.3906,1.3962,1.3965,1.3968,1.3986,1.3992,1.3997,0,0,0,0,0,0,1.3753,1.3768,1.3764,1.3801,1.3815,1.383,1.3849,1.3844,1.3862,1.386,1.386,1.3864,1.3897,1.3905,1.3887,1.3945,1.3927,1.3931,1.3938,1.3944,1.3948,1.3946,1.3871,0,0,0,0,0,1.3761,1.3782,1.3795,1.3826,1.3834,1.384,1.3852,1.3852,1.3867,1.3873,1.3882,1.3897,1.3917,1.3931,1.3951,1.3989,1.3992,1.4006,1.4011,1.4014,1.4018,1.4038,1.4044,1.3979,1.3979,1.3979,0,0,1.3778,1.3789,1.3803,1.383,1.3841,1.3863,1.3845,1.387,1.3886,1.3877,1.3907,1.3915,1.3931,1.3966,1.3982,1.3974,1.4037,1.4018,1.4021,1.4022,1.4042,1.4048,1.4053,1.3981,1.3981,1.398,0,0,1.382,1.3831,1.3858,1.3869,1.3886,1.389,1.3897,1.3912,1.3916,1.3947,1.394,1.396,1.3995,1.4007,1.4018,1.4064,1.4057,1.407,1.4093,1.4113,1.4118,1.4122,1.4138,1.4144,1.4074,1.4074,1.4074,0,1.384,1.3873,1.3873,1.3898,1.391,1.3902,1.3929,1.394,1.3962,1.3971,1.3961,1.4005,1.4015,1.4053,1.4064,1.4073,1.408,1.4068,1.4117,1.4122,1.4126,1.4141,1.4147,1.4075,1.4075,1.4075,1.4075,0,1.3895,1.3918,1.3938,1.3959,1.3974,1.4,1.4003,1.4018,1.4016,1.4021,1.4052,1.4064,1.4086,1.4095,1.4093,1.4132,1.4126,1.4117,1.4099,1.4134,1.4148,1.4154,1.4077,1.4077,1.4076,1.4076,0,0,1.395,1.3971,1.3978,1.3987,1.4005,1.4022,1.4048,1.4069,1.4081,1.4096,1.4117,1.4147,1.4138,1.415,1.415,1.4167,1.4202,1.4156,1.4156,1.4164,1.4245,1.4252,1.4259,1.4198,1.4199,1.42,1.4244,0,1.3994,1.4038,1.4038,1.4079,1.41,1.4092,1.4114,1.4127,1.4132,1.4151,1.4156,1.4177,1.4164,1.4171,1.4188,1.4195,1.4219,1.4192,1.4218,1.4219,1.4214,1.4266,1.4274,1.4314,1.4249,1.425,1.4251,0,1.4051,1.4067,1.411,1.4124,1.4132,1.4152,1.4171,1.4189,1.4203,1.4205,1.4218,1.4215,1.4241,1.4222,1.4257,1.4238,1.4249,1.4254,1.4255,1.4258,1.4237,1.427,1.4327,1.4333,1.426,1.4259,1.4259,0,1.4086,1.4119,1.4149,1.4157,1.4174,1.4188,1.4195,1.4208,1.4221,1.4237,1.4245,1.4265,1.4275,1.429,1.4292,1.4279,1.4327,1.4309,1.433,1.433,1.434,1.434,1.44,1.4347,1.4347,1.4347,1.4347,0,1.4135,1.4161,1.4165,1.4183,1.4212,1.4212,1.4241,1.4247,1.4259,1.4278,1.4273,1.4291,1.4293,1.4311,1.4313,1.4341,1.4346,1.4349,1.4349,1.4349,1.4349,1.4356,1.4353,1.4349,1.4348,1.4348,1.4348,0,1.4179,1.4183,1.4214,1.4227,1.4231,1.4252,1.4263,1.428,1.4285,1.4309,1.4315,1.4321,1.4343,1.4346,1.4372,1.4373,1.4407,1.4404,1.4402,1.4401,1.4422,1.442,1.4489,1.4498,1.444,1.444,1.4441,0,1.421,1.423,1.4245,1.4257,1.4265,1.4285,1.4297,1.4298,1.4311,1.4329,1.4344,1.4365,1.4381,1.4416,1.4423,1.4442,1.444,1.4463,1.4443,1.4442,1.444,1.4439,1.4441,1.4467,1.4467,1.4468,1.4468,0,1.4264,1.4264,1.4282,1.4301,1.4316,1.433,1.4344,1.4355,1.4357,1.4372,1.4394,1.4407,1.4432,1.4453,1.4472,1.448,1.4474,1.4474,1.448,1.4481,1.4479,1.448,1.4412,1.4473,1.4472,1.4472,1.4472,1.4472,1.4302,1.4319,1.4332,1.4352,1.4362,1.4375,1.4392,1.4398,1.4416,1.4437,1.4436,1.446,1.4473,1.4498,1.4507,1.4525,1.4518,1.4527,1.4529,1.4531,1.4533,1.4476,1.4529,1.4529,1.4529,1.4528,1.4528,0,1.4356,1.4363,1.4382,1.4401,1.4416,1.441,1.4424,1.4438,1.4459,1.4472,1.4488,1.4513,1.4533,1.4541,1.456,1.4574,1.4572,1.4579,1.4578,1.458,1.4538,1.4531,1.458,1.458,1.458,1.458,1.458,1.458,1.4385,1.4413,1.4416,1.4449,1.4456,1.4479,1.4488,1.45,1.451,1.4538,1.4554,1.4559,1.457,1.459,1.4608,1.461,1.4617,1.4626,1.4626,1.4588,1.4582,1.4578,1.4571,1.4627,1.4627,1.4666,1.4666,1.4667]}]]